Вернуться в каталог

PAUSAT-1

АктивенНаукаSSO
NORAD 62653·PAYLOAD·🇹🇷 Turkey

Запущен Jan 14, 2025 с Vandenberg Space Force Base

Loading…

Ближайшие Пролёты (ближайшие 24 часа)

TLE

СвежийSource: Space-Track

Эпоха: Sep 14, 2026, 21:01 UTC

1 62653U 25009AW  26257.87615877  .00003471  00000-0  14564-3 0  9997
2 62653  97.3895 336.2522 0002352  51.3018 308.8430 15.24139292 92441

Отслеживайте PAUSAT-1 в реальном времени с AllMySat

Download on the App Store